Location: Unspecified
(0.0000°N, 0.0000°E)
Time: 10:13:03
(UTC+00:00)

Vanguard 2 - Pass Details

Date: 09 October 2022
Orbit: 553 x 2933 km, 32.9° (Epoch: 29 November)

Event Time Altitude Azimuth Distance (km) Brightness Sun altitude
Rises 21:15:54 0° 281° (W) 6,774 12.9 -51.7°
Reaches altitude 10° 21:21:24 10° 272° (W) 5,664 12.3 -53.1°
Maximum altitude 21:35:20 32° 216° (SW) 3,526 10.9 -56.5°
Enters shadow 21:37:08 31° 204° (SSW) 3,453 10.8 -56.9°
